Hourly Data Report for May 27, 2021

WINNIPEG THE FORKS
MANITOBA
Current Station Operator: ECCC - MSC

49°53'18.008" N
97°07'46.007" W
230.00 m
5023262
71579
XWN

Download Data

Hourly Data (May 2021)
Hourly Data Report for May 27, 2021
TIME
LST
Temp Definition
°C
Dew Point Definition
°C
Rel Hum Definition
%
Precip. Amount Definition
mm

Wind Dir Definition
10's deg

Wind Spd Definition
km/h
Visibility Definition
km
Stn Press Definition
kPa
Hmdx Definition


Wind Chill Definition


Weather Definition


00:00 2.2 -4.0 64 0.0 36 5   100.01     LegendNANA
01:00 1.4 -4.7 64 0.0 35 5   100.05     LegendNANA
02:00 1.1 -4.1 68 0.0 1 4   100.03     LegendNANA
03:00 0.7 -4.2 70 0.0 4 4   100.03     LegendNANA
04:00 0.0 -4.1 74 0.0 2 4   100.00   -1 LegendNANA
05:00 0.7 -3.5 73 0.0 4 3   100.04     LegendNANA
06:00 1.5 -3.9 67 0.0 4 4   100.08     LegendNANA
07:00 4.2 -4.5 53 0.0 8 5   100.12     LegendNANA
08:00 5.7 -4.9 46 0.0 7 9   100.14     LegendNANA
09:00 7.0 -6.7 37 0.0 5 9   100.10     LegendNANA
10:00 9.0 -6.4 33 0.0 7 6   100.07     LegendNANA
11:00 9.2 -8.1 29 0.0 7 7   100.05     LegendNANA
12:00 10.3 -7.7 27 0.0 3 9   100.01     LegendNANA
13:00 11.3 -6.7 28 0.0 3 6   99.94     LegendNANA
14:00 12.9 -6.5 25 0.0 5 7   99.88     LegendNANA
15:00 13.1 -8.5 21 0.0 9 6   99.81     LegendNANA
16:00 14.3 -7.9 21 0.0 7 6   99.75     LegendNANA
17:00 14.7 -6.8 22 0.0 7 7   99.71     LegendNANA
18:00 14.7 -6.8 22 0.0 8 2   99.68     LegendNANA
19:00 14.3 -7.4 22 0.0 6 4   99.66     LegendNANA
20:00 12.8 -6.5 26 0.0 6 5   99.66     LegendNANA
21:00 10.7 -5.8 31 0.0 6 4   99.69     LegendNANA
22:00 9.5 -6.2 32 0.0 10 3   99.72     LegendNANA
23:00 8.8 -5.8 35 0.0 9 3   99.76     LegendNANA

Notes on Data Quality.

Legend

  • E = Estimated
  • M = Missing
  • NA = Not Available*
  • [empty] = Indicates an unobserved value
Date modified: